[[{"header":{"parameterUnit":"m.s-1","parameterCategory":1,"la1":30.2992,"la2":30.254,"lo1":-89.0895,"lo2":-89.0443,"dy":0.0025,"dx":0.0025,"nx":19,"ny":19,"refTime":"2026-04-08T09:00:00:Z","depth":0,"parameterNumber":2,"parameterNumberName":"U-component_of_WINDS"},"data":[0,0,0,-7.5503,-7.5507,-7.5646,-7.5646,-7.5885,-7.5888,0,0,0,0,0,0,0,0,0,0,0,-7.55,-7.5503,-7.5503,-7.5508,-7.5646,-7.5646,-7.5884,-7.5888,0,0,0,0,0,0,0,0,0,0,0,-7.5498,-7.5502,-7.5506,-7.5508,-7.5646,-7.5646,-7.5884,-7.5757,0,0,0,0,0,0,0,0,0,0,-7.5612,-7.5646,-7.5501,-7.5506,-7.5509,-7.5646,-7.5647,-7.575,-7.5765,-7.5848,0,-7.5933,0,-7.5915,-7.5908,-7.5909,0,0,0,-7.5479,-7.5634,-7.5637,-7.5506,-7.5511,-7.5646,-7.5576,-7.5758,-7.5775,-7.5869,-7.5936,-7.5943,-7.5919,-7.5909,-7.5911,-7.6486,-7.649,0,0,-7.5472,-7.5545,-7.5625,-7.565,-7.5633,-7.5571,-7.558,-7.5767,-7.5845,-7.5937,-7.5947,-7.5923,-7.5911,-7.5914,-7.6483,-7.6487,0,0,0,-7.5469,-7.5541,-7.5538,-7.5642,-7.5662,-7.5576,-7.5586,-7.5837,-7.5829,-7.595,-7.5925,-7.5913,-7.5917,-7.6478,-7.6484,-7.6755,0,0,0,-7.5463,-7.5539,-7.5536,-7.5583,-7.566,-7.5752,-7.5653,-7.5817,-7.5835,-7.5924,-7.5913,-7.592,-7.6474,-7.6481,-7.6738,-7.6872,0,0,0,-7.5478,-7.554,-7.5573,-7.5587,-7.5649,-7.5747,-7.5749,-7.5819,-7.5822,-7.5909,-7.5921,-7.647,-7.648,-7.6723,-7.6847,-7.7046,0,0,0,-7.5515,-7.5812,-7.5579,-7.5901,-7.5649,-7.5913,-7.5747,-7.594,-7.6047,-7.5915,-7.6474,-7.6484,-7.6718,-7.6831,-7.703,-7.7228,-7.7317,0,0,-7.5931,-7.5865,-7.6048,-7.5843,-7.6169,-7.5886,-7.625,-7.6278,-7.6218,-7.64,-7.6413,-7.6744,-7.6845,-7.7043,-7.7787,-7.7859,0,0,0,-7.6205,-7.6338,-7.6408,-7.6513,-7.6541,-7.6576,-7.654,-7.6549,-7.67,-7.6327,-7.6866,-7.6924,-7.7037,-7.7128,-7.7189,-7.7282,-7.6529,-7.6528,-7.6527,-7.6901,-7.6808,-7.7105,-7.703,-7.7134,-7.7093,-7.7168,-7.7174,-7.705,-7.718,-7.7234,-7.7697,-7.7807,-7.7852,-7.795,-7.7329,-7.733,-7.7331,-7.7332,-7.7503,-7.7677,-7.7504,-7.7731,-7.7631,-7.782,-7.7792,-7.7698,-7.7859,-7.7649,-7.7743,-7.7524,-7.7933,-7.8014,-7.7351,-7.7348,-7.7345,-7.7344,-7.7342,-7.795,-7.8017,-7.8023,-7.8165,-7.8284,-7.8196,-7.8359,-7.8261,-7.817,-7.8264,-7.8311,-7.8307,-7.8291,-7.8293,-7.8295,-7.8296,-7.8298,-7.8299,-7.83,-7.8412,-7.841,-7.856,-7.8614,-7.8668,-7.8727,-7.8687,-7.8738,-7.8768,-7.8684,-7.8684,-7.8549,-7.799,-7.7852,-7.8324,-7.832,-7.8317,-7.8315,-7.8313,-7.906,-7.8898,-7.913,-7.9184,-7.9238,-7.9364,-7.9236,-7.9347,-7.9374,-7.9457,-7.93,-7.8902,-7.8828,-7.8779,-7.8665,-7.9319,-7.9319,-7.9319,-7.9319,-7.9439,-7.9391,-7.9605,-7.9699,-7.9778,-7.9686,-7.9951,-7.9923,-7.9868,-7.9879,-7.9769,-7.9609,-7.9563,-7.9515,-7.9451,-7.9343,-8.0154,-8.0155,-8.0156,-7.9833,-7.9788,-8.0033,-7.9977,-8.0012,-8.0044,-8.029,-8.0404,-8.0307,-8.0188,-7.9886,-7.9851,-7.959,-7.9509,-7.9387,-7.9288,-7.9088,0,0]},{"header":{"parameterUnit":"m.s-1","parameterCategory":1,"la1":30.2992,"la2":30.254,"lo1":-89.0895,"lo2":-89.0443,"dy":0.0025,"dx":0.0025,"nx":19,"ny":19,"refTime":"2026-04-08T09:00:00:Z","depth":0,"parameterNumber":3,"parameterNumberName":"V-component_of_WINDS"},"data":[0,0,0,-1.1704,-1.1704,-1.1706,-1.1706,-1.1702,-1.1702,0,0,0,0,0,0,0,0,0,0,0,-1.1702,-1.1702,-1.1704,-1.1704,-1.1706,-1.1706,-1.1702,-1.1702,0,0,0,0,0,0,0,0,0,0,0,-1.1702,-1.1702,-1.1702,-1.1704,-1.1706,-1.1706,-1.1702,-1.1703,0,0,0,0,0,0,0,0,0,0,-1.1702,-1.1699,-1.1702,-1.1702,-1.1704,-1.1706,-1.1706,-1.1703,-1.1703,-1.1699,0,-1.1698,0,-1.17,-1.1702,-1.1702,0,0,0,-1.1705,-1.1699,-1.1701,-1.1702,-1.1704,-1.1706,-1.1705,-1.1703,-1.1703,-1.1699,-1.1698,-1.1698,-1.17,-1.1702,-1.1702,-1.1683,-1.1683,0,0,-1.1705,-1.1702,-1.1701,-1.1701,-1.1702,-1.1705,-1.1705,-1.1703,-1.17,-1.1698,-1.1698,-1.17,-1.1702,-1.1701,-1.1683,-1.1683,0,0,0,-1.1704,-1.1701,-1.1703,-1.1701,-1.1702,-1.1705,-1.1705,-1.1701,-1.1702,-1.1698,-1.17,-1.1701,-1.1701,-1.1683,-1.1683,-1.1672,0,0,0,-1.1704,-1.1701,-1.1703,-1.1701,-1.1702,-1.1702,-1.1703,-1.1702,-1.1702,-1.17,-1.1701,-1.1701,-1.1683,-1.1683,-1.1673,-1.1668,0,0,0,-1.1703,-1.1701,-1.1701,-1.1701,-1.1702,-1.1702,-1.1703,-1.1702,-1.1703,-1.1702,-1.1701,-1.1683,-1.1683,-1.1674,-1.1669,-1.1661,0,0,0,-1.17,-1.1693,-1.17,-1.1692,-1.1702,-1.1696,-1.1703,-1.1698,-1.1696,-1.1701,-1.1683,-1.1683,-1.1674,-1.167,-1.1661,-1.1653,-1.1649,0,0,-1.1689,-1.1691,-1.1687,-1.1694,-1.1686,-1.1696,-1.1685,-1.1687,-1.169,-1.1684,-1.1684,-1.1673,-1.1669,-1.1661,-1.1632,-1.1629,0,0,0,-1.1682,-1.1678,-1.1677,-1.1675,-1.1675,-1.1675,-1.1678,-1.1677,-1.1673,-1.1687,-1.1668,-1.1666,-1.1661,-1.1657,-1.1655,-1.165,-1.1681,-1.1681,-1.1681,-1.1661,-1.1665,-1.1656,-1.1659,-1.1656,-1.1658,-1.1656,-1.1656,-1.1661,-1.1656,-1.1654,-1.1636,-1.1631,-1.163,-1.1625,-1.1651,-1.1651,-1.1651,-1.1651,-1.1644,-1.1639,-1.1644,-1.1638,-1.164,-1.1634,-1.1634,-1.1637,-1.163,-1.1638,-1.1634,-1.1642,-1.1626,-1.1622,-1.165,-1.165,-1.165,-1.165,-1.165,-1.1631,-1.1629,-1.1629,-1.1624,-1.1619,-1.1621,-1.1614,-1.1616,-1.1619,-1.1615,-1.1612,-1.1612,-1.1611,-1.1613,-1.1613,-1.1613,-1.1613,-1.1613,-1.1613,-1.1618,-1.1617,-1.1612,-1.1609,-1.1606,-1.1603,-1.1602,-1.1599,-1.1595,-1.1598,-1.1598,-1.1601,-1.1625,-1.163,-1.1612,-1.1612,-1.1612,-1.1612,-1.1612,-1.1599,-1.1603,-1.1594,-1.1591,-1.1586,-1.1579,-1.1582,-1.1574,-1.1572,-1.1567,-1.1571,-1.1588,-1.1591,-1.1593,-1.1597,-1.1572,-1.1572,-1.1572,-1.1572,-1.1587,-1.1588,-1.1578,-1.1572,-1.1567,-1.1567,-1.1554,-1.1551,-1.155,-1.1547,-1.1551,-1.1557,-1.1559,-1.156,-1.1563,-1.1567,-1.1534,-1.1534,-1.1534,-1.1575,-1.1575,-1.1565,-1.1563,-1.1558,-1.1554,-1.154,-1.1531,-1.153,-1.1533,-1.1545,-1.1547,-1.1556,-1.156,-1.1564,-1.1568,-1.1575,0,0]}]]